When you browse on this site, cookies collect data to enhance your experience and personalize the content and advertising you see.
Visit our Privacy Policy to learn more. By continuing to use the site, you agree to this use of cookies and data.
  • în România
  • Lista ţărilor
  • Pe 7 zile
  • Temperatura apei
  • Meteo pe hartă
  • Widget-uri
  • user-avatar
    Intrare

    Meteo pe oră la Avrig

    Astăzi, 27 Mai, Miercuri

    Timp Temperatura Precipitaţii Vânt Presiune Umiditate
    00:00 +8°C° 0 mm 2 m/s 728 mmHg 90%
    01:00 +7°C° 0 mm 2 m/s 728 mmHg 90%
    02:00 +8°C° 0 mm 1 m/s 728 mmHg 90%
    03:00 +8°C° 0 mm 1 m/s 728 mmHg 91%
    04:00 +8°C° 0 mm 1 m/s 728 mmHg 91%
    05:00 +8°C° 0 mm 1 m/s 729 mmHg 91%
    06:00 +9°C° 0 mm 1 m/s 729 mmHg 90%
    07:00 +10°C° 0 mm 1 m/s 729 mmHg 89%
    08:00 +10°C° 0 mm 1 m/s 729 mmHg 88%
    09:00 +10°C° 0.2 mm 1 m/s 729 mmHg 89%
    10:00 +11°C° 0.2 mm 1 m/s 729 mmHg 89%
    11:00 +10°C° 0.2 mm 2 m/s 729 mmHg 90%
    12:00 +12°C° 0.2 mm 2 m/s 729 mmHg 84%
    13:00 +13°C° 0.2 mm 2 m/s 728 mmHg 79%
    14:00 +15°C° 0.2 mm 2 m/s 728 mmHg 73%
    15:00 +15°C° 0.5 mm 2 m/s 728 mmHg 74%
    16:00 +15°C° 0.5 mm 2 m/s 728 mmHg 75%
    17:00 +15°C° 0.5 mm 2 m/s 727 mmHg 76%
    18:00 +14°C° 0.5 mm 2 m/s 727 mmHg 81%
    19:00 +12°C° 0.5 mm 2 m/s 727 mmHg 86%
    20:00 +10°C° 0.5 mm 2 m/s 727 mmHg 91%
    21:00 +10°C° 0.4 mm 2 m/s 727 mmHg 91%
    22:00 +9°C° 0.4 mm 2 m/s 727 mmHg 92%
    23:00 +9°C° 0.4 mm 2 m/s 727 mmHg 92%

    Mâine, 28 Mai, Joi

    Timp Temperatura Precipitaţii Vânt Presiune Umiditate
    00:00 +10°C° 0.1 mm 1 m/s 727 mmHg 92%
    01:00 +9°C° 0.1 mm 1 m/s 727 mmHg 93%
    02:00 +9°C° 0.1 mm 1 m/s 727 mmHg 93%
    03:00 +9°C° 0 mm 1 m/s 727 mmHg 94%
    04:00 +9°C° 0 mm 1 m/s 726 mmHg 94%
    05:00 +9°C° 0 mm 1 m/s 726 mmHg 94%
    06:00 +9°C° 0 mm 2 m/s 726 mmHg 91%
    07:00 +10°C° 0 mm 2 m/s 726 mmHg 87%
    08:00 +13°C° 0 mm 2 m/s 726 mmHg 84%
    09:00 +14°C° 0.4 mm 2 m/s 725 mmHg 80%
    10:00 +14°C° 0.4 mm 2 m/s 725 mmHg 77%
    11:00 +14°C° 0.4 mm 3 m/s 725 mmHg 74%
    12:00 +16°C° 0.9 mm 3 m/s 725 mmHg 74%
    13:00 +16°C° 0.9 mm 3 m/s 724 mmHg 74%
    14:00 +17°C° 0.9 mm 3 m/s 723 mmHg 74%
    15:00 +16°C° 0.9 mm 3 m/s 723 mmHg 76%
    16:00 +16°C° 0.9 mm 3 m/s 723 mmHg 77%
    17:00 +16°C° 0.9 mm 3 m/s 723 mmHg 79%
    18:00 +14°C° 0.6 mm 3 m/s 723 mmHg 82%
    19:00 +13°C° 0.6 mm 2 m/s 723 mmHg 84%
    20:00 +12°C° 0.6 mm 2 m/s 723 mmHg 87%
    21:00 +12°C° 0 mm 2 m/s 723 mmHg 87%
    22:00 +10°C° 0 mm 2 m/s 723 mmHg 87%
    23:00 +9°C° 0 mm 2 m/s 723 mmHg 87%

    Poimâine, 29 Mai, Vineri

    Timp Temperatura Precipitaţii Vânt Presiune Umiditate
    00:00 +9°C° 0 mm 2 m/s 723 mmHg 87%
    01:00 +9°C° 0 mm 2 m/s 723 mmHg 88%
    02:00 +9°C° 0 mm 2 m/s 722 mmHg 88%
    03:00 +9°C° 0 mm 2 m/s 723 mmHg 89%
    04:00 +10°C° 0 mm 1 m/s 723 mmHg 89%
    05:00 +10°C° 0 mm 1 m/s 723 mmHg 90%
    06:00 +11°C° 0 mm 1 m/s 723 mmHg 86%
    07:00 +13°C° 0 mm 2 m/s 723 mmHg 82%
    08:00 +14°C° 0 mm 2 m/s 723 mmHg 79%
    09:00 +15°C° 0.4 mm 2 m/s 723 mmHg 77%
    10:00 +16°C° 0.4 mm 2 m/s 723 mmHg 76%
    11:00 +17°C° 0.4 mm 2 m/s 723 mmHg 74%
    12:00 +17°C° 1 mm 2 m/s 723 mmHg 76%
    13:00 +17°C° 1 mm 2 m/s 723 mmHg 77%
    14:00 +17°C° 1 mm 2 m/s 722 mmHg 79%
    15:00 +17°C° 1 mm 2 m/s 722 mmHg 80%
    16:00 +17°C° 1 mm 2 m/s 722 mmHg 81%
    17:00 +16°C° 1 mm 2 m/s 722 mmHg 82%
    18:00 +15°C° 0.6 mm 2 m/s 722 mmHg 85%
    19:00 +14°C° 0.6 mm 2 m/s 722 mmHg 87%
    20:00 +13°C° 0.6 mm 2 m/s 722 mmHg 90%
    21:00 +12°C° 0 mm 2 m/s 722 mmHg 90%
    22:00 +12°C° 0 mm 2 m/s 722 mmHg 90%
    23:00 +10°C° 0 mm 2 m/s 722 mmHg 91%

    30 Mai, Sâmbătă

    Timp Temperatura Precipitaţii Vânt Presiune Umiditate
    00:00 +11°C° 0 mm 1 m/s 722 mmHg 90%
    01:00 +10°C° 0 mm 1 m/s 722 mmHg 90%
    02:00 +10°C° 0 mm 1 m/s 722 mmHg 89%
    03:00 +10°C° 0 mm 1 m/s 722 mmHg 89%
    04:00 +10°C° 0 mm 1 m/s 722 mmHg 89%
    05:00 +9°C° 0 mm 1 m/s 722 mmHg 89%
    06:00 +11°C° 0 mm 1 m/s 722 mmHg 86%
    07:00 +13°C° 0 mm 1 m/s 723 mmHg 83%
    08:00 +14°C° 0 mm 1 m/s 723 mmHg 80%
    09:00 +15°C° 0.3 mm 1 m/s 723 mmHg 78%
    10:00 +16°C° 0.3 mm 2 m/s 723 mmHg 75%
    11:00 +17°C° 0.3 mm 2 m/s 723 mmHg 73%
    12:00 +17°C° 0.6 mm 2 m/s 723 mmHg 71%
    13:00 +18°C° 0.6 mm 2 m/s 722 mmHg 70%
    14:00 +18°C° 0.6 mm 2 m/s 722 mmHg 68%
    15:00 +18°C° 0.3 mm 2 m/s 722 mmHg 69%
    16:00 +18°C° 0.3 mm 2 m/s 722 mmHg 70%
    17:00 +18°C° 0.3 mm 2 m/s 722 mmHg 70%
    18:00 +16°C° 0.1 mm 2 m/s 722 mmHg 77%
    19:00 +14°C° 0.1 mm 1 m/s 722 mmHg 83%
    20:00 +12°C° 0.1 mm 1 m/s 722 mmHg 89%
    21:00 +12°C° 0 mm 1 m/s 722 mmHg 89%
    22:00 +12°C° 0 mm 1 m/s 722 mmHg 89%
    23:00 +12°C° 0 mm 1 m/s 723 mmHg 89%

    31 Mai, Duminică

    Timp Temperatura Precipitaţii Vânt Presiune Umiditate
    00:00 +11°C° 0 mm 1 m/s 722 mmHg 90%
    01:00 +11°C° 0 mm 1 m/s 722 mmHg 90%
    02:00 +10°C° 0 mm 1 m/s 722 mmHg 91%
    03:00 +10°C° 0 mm 1 m/s 722 mmHg 90%
    04:00 +9°C° 0 mm 1 m/s 722 mmHg 90%
    05:00 +9°C° 0 mm 1 m/s 722 mmHg 90%
    06:00 +11°C° 0 mm 1 m/s 722 mmHg 85%
    07:00 +13°C° 0 mm 1 m/s 722 mmHg 80%
    08:00 +15°C° 0 mm 1 m/s 722 mmHg 75%
    09:00 +16°C° 0.1 mm 1 m/s 722 mmHg 72%
    10:00 +17°C° 0.1 mm 2 m/s 722 mmHg 70%
    11:00 +18°C° 0.1 mm 2 m/s 722 mmHg 67%
    12:00 +18°C° 0.6 mm 2 m/s 722 mmHg 70%
    13:00 +18°C° 0.6 mm 2 m/s 722 mmHg 74%
    14:00 +18°C° 0.6 mm 2 m/s 721 mmHg 77%
    15:00 +17°C° 0.6 mm 2 m/s 721 mmHg 77%
    16:00 +17°C° 0.6 mm 2 m/s 721 mmHg 78%
    17:00 +17°C° 0.6 mm 2 m/s 721 mmHg 79%
    18:00 +15°C° 0.1 mm 2 m/s 721 mmHg 80%
    19:00 +14°C° 0.1 mm 2 m/s 721 mmHg 81%
    20:00 +13°C° 0.1 mm 2 m/s 721 mmHg 82%
    21:00 +12°C° 0 mm 2 m/s 722 mmHg 83%
    22:00 +12°C° 0 mm 1 m/s 722 mmHg 83%
    23:00 +11°C° 0 mm 1 m/s 722 mmHg 84%

    1 Iunie, Luni

    Timp Temperatura Precipitaţii Vânt Presiune Umiditate
    00:00 +11°C° 0 mm 1 m/s 722 mmHg 85%
    01:00 +10°C° 0 mm 1 m/s 722 mmHg 87%
    02:00 +10°C° 0 mm 1 m/s 722 mmHg 88%
    03:00 +10°C° 0 mm 1 m/s 722 mmHg 88%
    04:00 +10°C° 0 mm 1 m/s 722 mmHg 89%
    05:00 +10°C° 0 mm 1 m/s 722 mmHg 90%
    06:00 +12°C° 0 mm 1 m/s 723 mmHg 84%
    07:00 +14°C° 0 mm 1 m/s 723 mmHg 79%
    08:00 +15°C° 0 mm 1 m/s 723 mmHg 73%
    09:00 +18°C° 0 mm 1 m/s 723 mmHg 69%
    10:00 +19°C° 0 mm 1 m/s 723 mmHg 65%
    11:00 +20°C° 0 mm 1 m/s 723 mmHg 61%
    12:00 +21°C° 0.1 mm 1 m/s 723 mmHg 62%
    13:00 +21°C° 0.1 mm 1 m/s 723 mmHg 64%
    14:00 +21°C° 0.1 mm 1 m/s 723 mmHg 65%
    15:00 +21°C° 0.7 mm 1 m/s 723 mmHg 68%
    16:00 +21°C° 0.7 mm 1 m/s 723 mmHg 71%
    17:00 +20°C° 0.7 mm 1 m/s 722 mmHg 74%
    18:00 +19°C° 0.5 mm 1 m/s 722 mmHg 78%
    19:00 +16°C° 0.5 mm 1 m/s 722 mmHg 82%
    20:00 +14°C° 0.5 mm 1 m/s 722 mmHg 86%
    21:00 +14°C° 0.3 mm 1 m/s 723 mmHg 87%
    22:00 +13°C° 0.3 mm 1 m/s 723 mmHg 87%
    23:00 +12°C° 0.3 mm 1 m/s 723 mmHg 88%
    Arată mai mult